Weather History for KGZL - November, 2012

Change the Weather History Date:

Saturday, November 3, 2012

  Actual Average (KFSM) Record (KFSM)
Temperature  
Mean Temperature 58 °F 57 °F  
Max Temperature 71 °F 69 °F 86 °F (2003)
Min Temperature 44 °F 45 °F 15 °F (1966)
Degree Days  
Heating Degree Days 8 9  
Month to date heating degree days 26  
Since 1 July heating degree days 180  
Growing Degree Days 8 (Base 50)    
Moisture  
Dew Point 40 °F    
Average Humidity 51    
Maximum Humidity 76    
Minimum Humidity 28    
Precipitation  
Precipitation 0.00 in 0.15 in 3.41 in (1994)
Month to date precipitation 0.44  
Year to date precipitation 38.17  
Sea Level Pressure  
Sea Level Pressure 30.07 in    
Wind  
Wind Speed 8 mph (NNW)    
Max Wind Speed 14 mph    
Max Gust Speed 17 mph    
Visibility 10 miles    
Events      
T = Trace of Precipitation, MM = Missing Value Source: NWS Daily Summary

Daily Weather History Graph

Daily Weather History Graph

Search for Another Location

Airport or City:

Trip Planner

Search our weather history database for the weather conditions in past years. The results will help you decide how hot, cold, wet, or windy it might be!

Date:

Astronomy

Nov. 03, 2012 Rise Set
Actual Time 7:44 AM CDT 6:23 PM CDT
Civil Twilight 7:17 AM CDT 6:49 PM CDT
Nautical Twilight 6:47 AM CDT 7:19 PM CDT
Astronomical Twilight 6:17 AM CDT 7:49 PM CDT
Moon 10:08 PM CDT (11/3) 11:45 AM CDT (11/3)
Length of Visible Light 11h 31m
Length of Day
10h 39m
Waning Gibbous, 80% of the Moon is Illuminated
Nov 3
Waning Gibbous
Nov 6
Last Quarter
Nov 13
New
Nov 20
First Quarter
Nov 28
Full

Hourly Weather History & Observations

Time (CDT) Temp. Windchill Dew Point Humidity Pressure Visibility Wind Dir Wind Speed Gust Speed Precip Events Conditions
12:15 AM 71.6 °F - 50.0 °F 46% 29.92 in 10.0 mi SSW 10.4 mph 16.1 mph N/A   Clear
12:35 AM 71.6 °F - 51.8 °F 50% 29.93 in 10.0 mi SSW 8.1 mph - N/A   Clear
12:55 AM 68.0 °F - 51.8 °F 56% 29.94 in 10.0 mi SW 5.8 mph - N/A   Clear
1:15 AM 68.0 °F - 51.8 °F 56% 29.93 in 10.0 mi SSW 8.1 mph - N/A   Clear
1:35 AM 68.0 °F - 53.6 °F 60% 29.93 in 10.0 mi SSW 8.1 mph - N/A   Clear
1:55 AM 68.0 °F - 53.6 °F 60% 29.93 in 10.0 mi SSW 6.9 mph - N/A   Clear
2:15 AM 66.2 °F - 53.6 °F 64% 29.94 in 10.0 mi SW 5.8 mph - N/A   Clear
2:35 AM 66.2 °F - 53.6 °F 64% 29.93 in 10.0 mi SSW 6.9 mph - N/A   Clear
2:55 AM 66.2 °F - 53.6 °F 64% 29.94 in 10.0 mi SW 6.9 mph - N/A   Clear
3:15 AM 64.4 °F - 53.6 °F 68% 29.95 in 10.0 mi WNW 5.8 mph - N/A   Clear
3:35 AM 66.2 °F - 53.6 °F 64% 29.95 in 10.0 mi NW 8.1 mph - N/A   Clear
3:55 AM 64.4 °F - 53.6 °F 68% 29.97 in 10.0 mi NNW 5.8 mph - N/A   Clear
4:15 AM 62.6 °F - 53.6 °F 72% 29.97 in 10.0 mi NW 8.1 mph - N/A   Clear
4:35 AM 64.4 °F - 53.6 °F 68% 29.98 in 10.0 mi West 8.1 mph - N/A   Clear
4:55 AM 62.6 °F - 53.6 °F 72% 29.99 in 10.0 mi West 6.9 mph - N/A   Clear
5:15 AM 62.6 °F - 53.6 °F 72% 29.99 in 10.0 mi West 6.9 mph - N/A   Clear
5:35 AM 60.8 °F - 51.8 °F 72% 30.00 in 10.0 mi WNW 6.9 mph - N/A   Clear
5:55 AM 60.8 °F - 46.4 °F 59% 30.01 in 10.0 mi NW 11.5 mph - N/A   Clear
6:15 AM 59.0 °F - 44.6 °F 59% 30.03 in 10.0 mi WNW 6.9 mph - N/A   Clear
6:35 AM 57.2 °F - 44.6 °F 63% 30.04 in 10.0 mi NW 9.2 mph - N/A   Clear
6:55 AM 55.4 °F - 42.8 °F 63% 30.05 in 10.0 mi NW 6.9 mph - N/A   Clear
7:15 AM 55.4 °F - 41.0 °F 58% 30.06 in 10.0 mi NW 3.5 mph - N/A   Clear
7:35 AM 53.6 °F - 41.0 °F 62% 30.07 in 10.0 mi NW 5.8 mph - N/A   Clear
7:55 AM 53.6 °F - 41.0 °F 62% 30.08 in 9.0 mi NW 4.6 mph - N/A   Clear
8:15 AM 53.6 °F - 39.2 °F 58% 30.09 in 10.0 mi NW 5.8 mph - N/A   Clear
8:35 AM 53.6 °F - 39.2 °F 58% 30.10 in 9.0 mi NW 4.6 mph - N/A   Clear
8:55 AM 55.4 °F - 39.2 °F 54% 30.11 in 10.0 mi NNW 6.9 mph - N/A   Mostly Cloudy
9:15 AM 55.4 °F - 37.4 °F 51% 30.12 in 9.0 mi NNW 6.9 mph - N/A   Mostly Cloudy
9:35 AM 57.2 °F - 37.4 °F 48% 30.12 in 8.0 mi NNW 9.2 mph - N/A   Partly Cloudy
9:55 AM 57.2 °F - 35.6 °F 44% 30.12 in 10.0 mi North 9.2 mph 16.1 mph N/A   Clear
10:15 AM 59.0 °F - 35.6 °F 42% 30.13 in 10.0 mi North 10.4 mph - N/A   Clear
10:35 AM 59.0 °F - 33.8 °F 39% 30.13 in 9.0 mi North 10.4 mph - N/A   Clear
10:55 AM 60.8 °F - 32.0 °F 34% 30.13 in 10.0 mi North 9.2 mph - N/A   Clear
11:15 AM 60.8 °F - 33.8 °F 36% 30.13 in 9.0 mi North 8.1 mph - N/A   Clear
11:35 AM 62.6 °F - 33.8 °F 34% 30.13 in 10.0 mi NNW 6.9 mph - N/A   Clear
11:55 AM 62.6 °F - 33.8 °F 34% 30.12 in 9.0 mi North 9.2 mph - N/A   Clear
12:15 PM 64.4 °F - 33.8 °F 32% 30.11 in 8.0 mi NW 9.2 mph - N/A   Clear
12:35 PM 64.4 °F - 35.6 °F 34% 30.11 in 10.0 mi NNW 8.1 mph - N/A   Clear
12:55 PM 64.4 °F - 35.6 °F 34% 30.11 in 10.0 mi NNW 8.1 mph - N/A   Clear
1:15 PM 66.2 °F - 35.6 °F 32% 30.10 in 10.0 mi NNW 9.2 mph - N/A   Clear
1:35 PM 66.2 °F - 35.6 °F 32% 30.10 in 9.0 mi North 11.5 mph - N/A   Clear
1:55 PM 66.2 °F - 35.6 °F 32% 30.09 in 9.0 mi NNW 8.1 mph - N/A   Clear
2:15 PM 66.2 °F - 35.6 °F 32% 30.09 in 9.0 mi NW 9.2 mph - N/A   Clear
2:35 PM 66.2 °F - 35.6 °F 32% 30.08 in 9.0 mi NNW 9.2 mph 17.3 mph N/A   Clear
2:55 PM 68.0 °F - 35.6 °F 30% 30.08 in 10.0 mi NW 10.4 mph 17.3 mph N/A   Clear
3:15 PM 68.0 °F - 33.8 °F 28% 30.08 in 9.0 mi NNW 12.7 mph - N/A   Clear
3:35 PM 66.2 °F - 33.8 °F 30% 30.08 in 9.0 mi NNW 13.8 mph - N/A   Clear
3:55 PM 66.2 °F - 33.8 °F 30% 30.08 in 10.0 mi NNW 13.8 mph - N/A   Clear
4:15 PM 66.2 °F - 35.6 °F 32% 30.08 in 9.0 mi NNW 11.5 mph 17.3 mph N/A   Clear
4:35 PM 66.2 °F - 35.6 °F 32% 30.08 in 10.0 mi NNW 11.5 mph 17.3 mph N/A   Clear
4:55 PM 66.2 °F - 33.8 °F 30% 30.09 in 10.0 mi North 9.2 mph - N/A   Clear
5:15 PM 64.4 °F - 33.8 °F 32% 30.09 in 10.0 mi North 11.5 mph - N/A   Clear
5:35 PM 62.6 °F - 35.6 °F 37% 30.09 in 9.0 mi NNW 9.2 mph - N/A   Clear
5:55 PM 60.8 °F - 35.6 °F 39% 30.09 in 10.0 mi NNW 8.1 mph - N/A   Clear
6:15 PM 57.2 °F - 35.6 °F 44% 30.10 in 10.0 mi NNW 8.1 mph - N/A   Clear
6:55 PM 53.6 °F - 35.6 °F 51% 30.11 in 10.0 mi North 3.5 mph - N/A   Clear
7:15 PM 55.4 °F - 35.6 °F 47% 30.11 in 10.0 mi NNE 4.6 mph - N/A   Clear
7:35 PM 53.6 °F - 35.6 °F 51% 30.12 in 10.0 mi NNE 3.5 mph - N/A   Clear
7:55 PM 53.6 °F - 35.6 °F 51% 30.13 in 10.0 mi North 3.5 mph - N/A   Clear
8:15 PM 53.6 °F - 35.6 °F 51% 30.13 in 10.0 mi North 4.6 mph - N/A   Clear
8:35 PM 53.6 °F - 35.6 °F 51% 30.13 in 10.0 mi NE 3.5 mph - N/A   Clear
8:55 PM 53.6 °F - 35.6 °F 51% 30.14 in 10.0 mi NNE 3.5 mph - N/A   Clear
9:15 PM 51.8 °F - 35.6 °F 54% 30.14 in 10.0 mi NNE 4.6 mph - N/A   Clear
9:35 PM 50.0 °F - 35.6 °F 58% 30.14 in 10.0 mi NNE 4.6 mph - N/A   Clear
9:55 PM 50.0 °F - 35.6 °F 58% 30.15 in 10.0 mi NNE 4.6 mph - N/A   Clear
10:15 PM 44.6 °F 43.1 °F 37.4 °F 76% 30.15 in 9.0 mi North 3.5 mph - N/A   Clear
10:35 PM 46.4 °F - 37.4 °F 71% 30.15 in 9.0 mi Calm Calm - N/A   Clear
10:55 PM 46.4 °F - 35.6 °F 66% 30.14 in 6.0 mi Calm Calm - N/A   Haze
11:15 PM 44.6 °F 42.2 °F 37.4 °F 76% 30.14 in 10.0 mi North 4.6 mph - N/A   Clear
11:35 PM 44.6 °F - 35.6 °F 71% 30.15 in 10.0 mi Calm Calm - N/A   Clear
11:55 PM 46.4 °F - 35.6 °F 66% 30.15 in 10.0 mi Calm Calm - N/A   Clear